Weather reports worldwide

Advertisment
La Coruna, Spain (8001): temperature & dewpoint: 13.01.2018 06:00:00 - 19.01.2018 06:00:00 (CET)La Coruna, Spain (8001): wind speed: 13.01.2018 06:00:00 - 19.01.2018 06:00:00 (CET)La Coruna, Spain (8001): wind direction: 13.01.2018 06:00:00 - 19.01.2018 06:00:00 (CET)La Coruna, Spain (8001): reduced air pressure: 13.01.2018 06:00:00 - 19.01.2018 06:00:00 (CET)La Coruna, Spain (8001): visibility: 13.01.2018 06:00:00 - 19.01.2018 06:00:00 (CET)La Coruna, Spain (8001): precipitation: 13.01.2018 06:00:00 - 19.01.2018 06:00:00 (CET)
Date & Time tt [°C] td [°C] ff [km/h] ff [kn] dd ppp [hPa] vv [km] rr [mm]
19.01.2018 06:00:00 12,1 11,6 15 8 WSW 1024,1 1,9 0,4
19.01.2018 05:00:00 12,1 11,6 11 6 SW 1023,7 3,2 0,0
19.01.2018 04:00:00 12,0 11,5 13 7 WSW 1024,4 1,2 -
19.01.2018 03:00:00 12,0 11,4 13 7 SW 1024,4 4,2 0,4
19.01.2018 02:00:00 12,0 11,4 9 5 SW 1024,7 1,8 0,0
19.01.2018 01:00:00 12,1 11,3 8 4 SW 1024,9 8 -
19.01.2018 00:00:00 12,1 11,3 11 6 SW 1024,9 11 0,0
18.01.2018 23:00:00 12,0 11,2 9 5 SW 1025,0 7 0,2
18.01.2018 22:00:00 12,0 11,4 11 6 SW 1025,0 1,5 -
18.01.2018 21:00:00 12,1 11,2 11 6 SW 1025,1 3,0 0,2
18.01.2018 20:00:00 12,2 10,8 9 5 WSW 1025,0 - 0,0
18.01.2018 19:00:00 12,3 10,7 9 5 WSW 1024,9 7 -
18.01.2018 18:00:00 12,8 10,3 9 5 W 1024,8 10 0,0
18.01.2018 17:00:00 13,0 10,0 5 3 W 1024,5 10 0,0
18.01.2018 16:00:00 12,9 9,5 8 4 WSW 1024,7 12 -
18.01.2018 15:00:00 12,6 9,6 13 7 SW 1025,0 11 0,0
18.01.2018 14:00:00 12,8 9,1 9 5 WSW 1025,9 11 0,0
18.01.2018 13:00:00 12,4 8,5 11 6 SW 1026,3 12 -
18.01.2018 12:00:00 11,7 8,4 11 6 SW 1026,8 12 0,0
18.01.2018 11:00:00 11,1 8,3 9 5 SSW 1026,7 11 0,0
18.01.2018 10:00:00 10,6 8,0 13 7 SSW 1026,6 12 -
18.01.2018 09:00:00 10,5 7,7 13 7 SW 1026,5 7 0,0
18.01.2018 08:00:00 10,4 6,5 5 3 S 1026,4 12 0,0
18.01.2018 07:00:00 10,2 6,0 8 4 S 1026,3 15 -
18.01.2018 06:00:00 10,2 5,8 5 3 S 1026,8 13 0,0
18.01.2018 05:00:00 10,4 5,6 8 4 SSW 1027,1 13 0,0
18.01.2018 04:00:00 10,2 5,2 5 3 SSW 1027,6 15 -
18.01.2018 03:00:00 10,1 4,9 8 4 SSW 1028,0 14 0,0
18.01.2018 02:00:00 10,1 4,9 8 4 S 1028,7 13 0,0
18.01.2018 01:00:00 10,9 5,2 8 4 SW 1029,2 12 -
18.01.2018 00:00:00 11,0 5,5 8 4 WSW 1029,7 9 0,0
17.01.2018 23:00:00 11,2 5,3 9 5 W 1030,1 10 0,0
17.01.2018 22:00:00 11,3 5,2 11 6 W 1030,0 15 -
17.01.2018 21:00:00 11,4 5,7 8 4 W 1030,0 11 0,0
17.01.2018 20:00:00 11,4 5,0 5 3 W 1029,7 14 0,0
17.01.2018 19:00:00 11,7 6,4 4 2 WSW 1029,9 7 -
17.01.2018 18:00:00 12,0 6,1 5 3 W 1030,0 8 0,0
17.01.2018 17:00:00 12,4 5,3 5 3 NW 1030,3 10 0,0
17.01.2018 16:00:00 12,5 5,9 9 5 NW 1030,7 11 -
17.01.2018 15:00:00 13,1 5,0 5 3 WNW 1030,9 11 0,0
17.01.2018 14:00:00 13,1 5,0 8 4 WNW 1031,6 9 0,0
17.01.2018 13:00:00 13,5 5,1 8 4 NW 1032,2 22 -
17.01.2018 12:00:00 13,0 6,1 9 5 N 1032,4 9 0,0
17.01.2018 11:00:00 12,2 7,1 8 4 N 1032,0 8 0,0
17.01.2018 10:00:00 11,9 6,8 11 6 NW 1031,5 12 -
17.01.2018 09:00:00 11,6 6,7 11 6 NW 1031,0 8 0,0
17.01.2018 08:00:00 11,5 7,8 13 7 WNW 1030,8 - 0,0
17.01.2018 07:00:00 11,6 5,9 13 7 WNW 1030,5 15 -
17.01.2018 06:00:00 11,8 4,7 18 10 NW 1030,5 11 0,0
17.01.2018 05:00:00 11,7 8,2 18 10 WNW 1030,4 8 0,0
17.01.2018 04:00:00 11,9 6,6 22 12 WNW 1030,4 15 -
17.01.2018 03:00:00 11,9 7,8 16 9 WNW 1029,9 9 0,0
17.01.2018 02:00:00 12,4 8,1 18 10 WNW 1029,8 11 0,0
17.01.2018 01:00:00 12,4 10,1 13 7 W 1029,4 15 -
17.01.2018 00:00:00 12,7 10,8 15 8 W 1029,1 8 0,0
16.01.2018 23:00:00 12,8 11,4 18 10 WSW 1028,9 5 0,0
16.01.2018 22:00:00 13,0 11,1 18 10 WSW 1028,3 15 -
16.01.2018 21:00:00 12,7 11,6 18 10 WSW 1028,3 13 0,4
16.01.2018 20:00:00 12,7 11,9 18 10 WSW 1028,0 3,3 0,2
16.01.2018 19:00:00 12,9 11,8 16 9 WSW 1027,2 7 -
16.01.2018 18:00:00 13,0 12,1 16 9 WSW 1027,1 9 0,0
16.01.2018 17:00:00 13,7 12,1 18 10 WSW 1026,8 7 0,0
16.01.2018 16:00:00 14,2 12,1 18 10 W 1026,5 10 -
16.01.2018 15:00:00 14,3 11,6 15 8 WSW 1027,0 17 0,0
16.01.2018 14:00:00 14,5 12,0 13 7 WSW 1027,8 18 0,0
16.01.2018 13:00:00 13,8 12,0 15 8 WSW 1028,6 10 -
16.01.2018 12:00:00 13,4 11,5 15 8 WSW 1028,8 18 0,0
16.01.2018 11:00:00 13,2 11,3 16 9 WSW 1028,1 20 0,0
16.01.2018 10:00:00 12,8 11,0 21 11 SW 1027,9 15 -
16.01.2018 09:00:00 12,3 11,5 13 7 SW 1027,7 3,3 0,2
16.01.2018 08:00:00 12,3 11,5 13 7 WSW 1027,3 8 0,2
16.01.2018 07:00:00 12,4 11,6 13 7 SW 1026,5 5 -
16.01.2018 06:00:00 12,5 11,7 11 6 WSW 1026,7 9 0,2
16.01.2018 05:00:00 12,4 11,6 16 9 WSW 1026,9 6 0,6
16.01.2018 04:00:00 12,8 11,4 15 8 WSW 1026,8 15 -
16.01.2018 03:00:00 12,8 11,7 15 8 WSW 1026,5 16 0,0
16.01.2018 02:00:00 12,8 11,9 22 12 WSW 1027,0 10 0,2
16.01.2018 01:00:00 12,9 12,1 15 8 WSW 1027,0 5 -
16.01.2018 00:00:00 12,8 11,9 16 9 SW 1026,7 16 0,2
15.01.2018 23:00:00 12,6 11,5 11 6 SW 1026,1 2,0 0,2
15.01.2018 22:00:00 13,2 10,7 18 10 SW 1025,8 15 -
15.01.2018 21:00:00 13,4 10,2 22 12 SW 1025,3 20 0,0
15.01.2018 20:00:00 13,1 9,9 24 13 SW 1024,8 20 0,0
15.01.2018 19:00:00 13,4 9,4 24 13 SW 1024,4 20 -
15.01.2018 18:00:00 13,2 9,1 28 15 SW 1024,2 20 0,0
15.01.2018 17:00:00 13,1 8,8 29 16 SW 1024,0 19 0,0
15.01.2018 16:00:00 12,8 8,7 24 13 SW 1023,9 18 -
15.01.2018 15:00:00 12,6 8,1 24 13 SW 1024,3 18 0,0
15.01.2018 14:00:00 12,0 7,3 24 13 SW 1025,1 20 0,0
15.01.2018 13:00:00 11,6 6,9 13 7 SSW 1026,2 25 -
15.01.2018 12:00:00 10,7 6,4 5 3 S 1026,9 20 0,0
15.01.2018 11:00:00 9,4 5,8 9 5 S 1026,6 19 0,0
15.01.2018 10:00:00 8,5 5,2 11 6 SSE 1026,3 25 -
15.01.2018 09:00:00 8,2 5,1 9 5 S 1026,2 19 0,0
15.01.2018 08:00:00 8,0 5,1 8 4 S 1025,8 20 0,0
15.01.2018 07:00:00 7,8 4,6 9 5 S 1026,0 20 -
15.01.2018 06:00:00 7,5 3,9 9 5 SSW 1025,7 17 0,0
15.01.2018 05:00:00 6,0 3,8 5 3 S 1025,8 19 0,0
15.01.2018 04:00:00 6,8 4,1 8 4 SSE 1025,7 20 -
15.01.2018 03:00:00 7,0 4,6 8 4 S 1025,6 19 0,0
15.01.2018 02:00:00 7,8 5,1 11 6 SSW 1025,8 12 0,0
15.01.2018 01:00:00 7,9 5,4 11 6 SSW 1026,0 20 -
15.01.2018 00:00:00 7,6 5,4 8 4 S 1025,9 17 0,0
14.01.2018 23:00:00 8,3 5,9 5 3 SW 1025,9 17 0,0
14.01.2018 22:00:00 8,6 6,2 8 4 SW 1025,1 15 -
14.01.2018 21:00:00 8,4 5,5 4 2 WSW 1024,7 15 0,0
14.01.2018 20:00:00 8,8 5,5 4 2 S 1023,8 16 0,0
14.01.2018 19:00:00 8,9 5,5 5 3 WNW 1023,3 17 -
14.01.2018 18:00:00 9,9 5,3 5 3 NW 1022,6 20 0,0
14.01.2018 17:00:00 10,4 5,0 4 2 NNW 1021,8 20 0,0
14.01.2018 16:00:00 11,0 5,7 8 4 WNW 1021,3 20 -
14.01.2018 15:00:00 11,6 5,2 5 3 W 1020,8 19 0,0
14.01.2018 14:00:00 11,9 4,1 8 4 S 1021,0 20 0,0
14.01.2018 13:00:00 10,8 5,7 5 3 SE 1021,8 25 -
14.01.2018 12:00:00 9,1 5,3 5 3 SE 1021,6 20 0,0
14.01.2018 11:00:00 6,8 4,1 8 4 SSE 1021,0 19 0,0
14.01.2018 10:00:00 5,8 3,8 5 3 SSE 1020,3 25 -
14.01.2018 09:00:00 5,2 3,4 8 4 SSE 1019,9 19 0,0
14.01.2018 08:00:00 5,2 3,7 9 5 SSE 1019,3 19 0,0
14.01.2018 07:00:00 5,6 3,9 5 3 SE 1019,0 16 -
14.01.2018 06:00:00 6,0 4,0 8 4 SSE 1018,9 20 0,0
14.01.2018 05:00:00 6,3 4,3 16 9 S 1019,1 20 0,0
14.01.2018 04:00:00 7,3 5,1 11 6 SE 1019,0 16 -
14.01.2018 03:00:00 8,0 5,6 9 5 SE 1018,7 19 0,6
14.01.2018 02:00:00 8,2 5,3 13 7 SW 1018,5 19 2,0
14.01.2018 01:00:00 8,2 5,3 11 6 SSW 1018,8 15 -
14.01.2018 00:00:00 8,3 5,4 11 6 SW 1018,5 19 0,0
13.01.2018 23:00:00 7,8 5,1 11 6 SSW 1018,4 20 2,0
13.01.2018 22:00:00 7,9 5,2 18 10 SW 1018,0 15 -
13.01.2018 21:00:00 8,3 5,9 9 5 S 1017,9 7 1,0
13.01.2018 20:00:00 8,3 5,8 8 4 SW 1017,8 14 2,0
13.01.2018 19:00:00 8,6 5,5 9 5 SSW 1016,9 19 -
13.01.2018 18:00:00 10,6 5,8 15 8 SW 1015,9 20 0,2
13.01.2018 17:00:00 11,0 5,9 15 8 SW 1015,6 20 0,0
13.01.2018 16:00:00 11,5 5,6 18 10 WSW 1015,5 20 -
13.01.2018 15:00:00 10,4 5,8 13 7 SW 1015,4 20 0,0
13.01.2018 14:00:00 10,2 5,4 9 5 SW 1015,4 20 0,0
13.01.2018 13:00:00 10,1 6,6 16 9 SW 1016,1 20 -
13.01.2018 12:00:00 11,0 6,7 9 5 SW 1016,2 18 0,4
13.01.2018 11:00:00 10,3 7,5 15 8 SW 1016,0 19 0,0
13.01.2018 10:00:00 10,2 7,1 11 6 SW 1015,2 15 -
13.01.2018 09:00:00 10,0 7,4 11 6 SW 1014,9 19 0,0
13.01.2018 08:00:00 9,2 7,3 9 5 SSW 1014,9 18 0,0
13.01.2018 07:00:00 9,2 7,5 4 2 S 1014,4 18 -
13.01.2018 06:00:00 9,3 7,7 5 3 SE 1014,4 20 0,0

tt = temperature
td = dewpoint
ff = wind speed
dd = wind direction
ppp = reduced air pressure
vv = visibility
rr = precipitation

Next stations